BVX148A EGCC-EDDS

Flight info

Callsign BVX148A
Flight time 1h 34m
Altitude 39000
Route SONEX L975 DESIG L603 DOLAS DCT NAVPI DCT DODEN DCT TABUM DCT FOLWU DCT UBENO N850 KRH T128 BADSO BADSO2A
Aircraft B738/M-SDE2E3FGHIRWXY/LB1

Departure

Time 2026-05-04 17:02
Airport Manchester Airport (EGCC)

Arrival

Time 2026-05-04 18:36
Airport Stuttgart Airport (EDDS)
Time Latitude Longitude Altitude Speed Heading
2026-05-04 16:15 53.36693 -2.28462 254 ft 0 kts 135°
2026-05-04 16:16 53.36695 -2.28465 254 ft 0 kts 135°
2026-05-04 16:44 53.36740 -2.28541 254 ft 2 kts 135°
2026-05-04 16:45 53.36775 -2.28543 254 ft 4 kts 224°
2026-05-04 16:46 53.36800 -2.28501 254 ft 0 kts 224°
2026-05-04 16:49 53.36789 -2.28520 254 ft 5 kts 224°
2026-05-04 16:49 53.36692 -2.28680 254 ft 13 kts 225°
2026-05-04 16:50 53.36554 -2.28714 254 ft 12 kts 134°
2026-05-04 16:50 53.36441 -2.28523 254 ft 11 kts 132°
2026-05-04 16:51 53.36366 -2.28322 254 ft 10 kts 135°
2026-05-04 16:51 53.36318 -2.28241 254 ft 10 kts 134°
2026-05-04 16:51 53.36225 -2.28085 254 ft 9 kts 135°
2026-05-04 16:52 53.36133 -2.27944 254 ft 9 kts 142°
2026-05-04 16:52 53.36086 -2.27882 254 ft 9 kts 141°
2026-05-04 16:53 53.35995 -2.27765 254 ft 8 kts 143°
2026-05-04 16:53 53.35838 -2.27732 252 ft 10 kts 179°
2026-05-04 16:54 53.35777 -2.27674 250 ft 11 kts 149°
2026-05-04 16:55 53.35606 -2.27504 244 ft 5 kts 141°
2026-05-04 16:55 53.35589 -2.27480 244 ft 0 kts 141°
2026-05-04 16:58 53.35560 -2.27440 245 ft 7 kts 140°
2026-05-04 16:59 53.35463 -2.27309 247 ft 12 kts 141°
2026-05-04 17:00 53.35174 -2.27242 230 ft 5 kts 192°
2026-05-04 17:00 53.35017 -2.27308 225 ft 7 kts 219°
2026-05-04 17:01 53.34942 -2.27459 224 ft 23 kts 231°
2026-05-04 17:01 53.34101 -2.29204 234 ft 160 kts 233°
2026-05-04 17:02 53.32575 -2.32187 1612 ft 166 kts 227°
2026-05-04 17:02 53.31052 -2.35118 2834 ft 190 kts 261°
2026-05-04 17:03 53.31338 -2.37356 3111 ft 212 kts 302°
2026-05-04 17:03 53.32379 -2.39227 3440 ft 227 kts 321°
2026-05-04 17:03 53.35380 -2.41133 4512 ft 240 kts
2026-05-04 17:04 53.38136 -2.38349 4866 ft 248 kts 60°
2026-05-04 17:04 53.38607 -2.32648 4860 ft 257 kts 88°
2026-05-04 17:05 53.38598 -2.26427 4841 ft 272 kts 89°
2026-05-04 17:05 53.38571 -2.20126 4875 ft 272 kts 89°
2026-05-04 17:06 53.38541 -2.13758 4871 ft 273 kts 89°
2026-05-04 17:06 53.38524 -2.10581 4872 ft 272 kts 90°
2026-05-04 17:07 53.38494 -2.04179 5680 ft 277 kts 89°
2026-05-04 17:07 53.38483 -2.02048 6358 ft 276 kts 90°
2026-05-04 17:07 53.38468 -1.97724 7478 ft 281 kts 89°
2026-05-04 17:07 53.38461 -1.94413 8271 ft 286 kts 90°
2026-05-04 17:08 53.38234 -1.91089 9076 ft 291 kts 101°
2026-05-04 17:08 53.37306 -1.84368 10481 ft 309 kts 104°
2026-05-04 17:08 53.36785 -1.80725 10667 ft 333 kts 103°
2026-05-04 17:09 53.36242 -1.76819 10846 ft 356 kts 103°
2026-05-04 17:09 53.35687 -1.72713 11079 ft 375 kts 103°
2026-05-04 17:09 53.35111 -1.68350 11633 ft 382 kts 102°
2026-05-04 17:10 53.33984 -1.59626 13091 ft 388 kts 102°
2026-05-04 17:10 53.32263 -1.46187 15126 ft 401 kts 103°
2026-05-04 17:11 53.31676 -1.41613 15844 ft 404 kts 103°
2026-05-04 17:11 53.31081 -1.36995 16546 ft 407 kts 103°
2026-05-04 17:11 53.29872 -1.27652 17878 ft 415 kts 103°
2026-05-04 17:12 53.29256 -1.22915 18510 ft 419 kts 103°
2026-05-04 17:12 53.28011 -1.13391 19729 ft 423 kts 103°
2026-05-04 17:13 53.26096 -0.98870 21425 ft 431 kts 103°
2026-05-04 17:14 53.24123 -0.84045 22818 ft 443 kts 104°
2026-05-04 17:14 53.23447 -0.79016 23265 ft 446 kts 104°
2026-05-04 17:14 53.22078 -0.68863 24183 ft 449 kts 104°
2026-05-04 17:15 53.21389 -0.63779 24611 ft 451 kts 104°
2026-05-04 17:15 53.20004 -0.53605 25441 ft 455 kts 104°
2026-05-04 17:16 53.18578 -0.43207 26221 ft 458 kts 103°
2026-05-04 17:16 53.16425 -0.27646 27292 ft 464 kts 103°
2026-05-04 17:17 53.15693 -0.22396 27632 ft 466 kts 104°
2026-05-04 17:17 53.13488 -0.06676 29110 ft 461 kts 103°
2026-05-04 17:18 53.12755 -0.01487 29660 ft 458 kts 104°
2026-05-04 17:18 53.11278 0.08913 30244 ft 466 kts 104°
2026-05-04 17:19 53.09782 0.19377 31083 ft 462 kts 104°
2026-05-04 17:19 53.08300 0.29674 31845 ft 460 kts 104°
2026-05-04 17:20 53.06801 0.40022 32531 ft 460 kts 104°
2026-05-04 17:20 53.05298 0.50327 33296 ft 458 kts 105°
2026-05-04 17:20 53.04541 0.55486 33517 ft 461 kts 105°
2026-05-04 17:21 53.03011 0.65871 34058 ft 462 kts 105°
2026-05-04 17:21 53.01482 0.76191 34674 ft 460 kts 105°
2026-05-04 17:22 53.00711 0.81362 34872 ft 462 kts 105°
2026-05-04 17:22 52.99936 0.86552 35079 ft 463 kts 106°
2026-05-04 17:23 52.97536 1.02109 35841 ft 462 kts 110°
2026-05-04 17:23 52.96479 1.07157 36025 ft 463 kts 112°
2026-05-04 17:23 52.94158 1.17130 36486 ft 463 kts 114°
2026-05-04 17:24 52.92979 1.22115 36792 ft 462 kts 114°
2026-05-04 17:24 52.89514 1.37033 37465 ft 464 kts 113°
2026-05-04 17:25 52.88383 1.41962 37720 ft 463 kts 113°
2026-05-04 17:25 52.86106 1.51880 38178 ft 463 kts 113°
2026-05-04 17:26 52.83814 1.61819 38559 ft 464 kts 113°
2026-05-04 17:26 52.80349 1.76744 38942 ft 466 kts 114°
2026-05-04 17:27 52.78013 1.86739 38950 ft 466 kts 114°
2026-05-04 17:28 52.73345 2.06590 38933 ft 461 kts 114°
2026-05-04 17:29 52.66334 2.36054 38941 ft 459 kts 114°
2026-05-04 17:31 52.60474 2.60380 38933 ft 461 kts 115°
2026-05-04 17:32 52.54469 2.84926 38934 ft 464 kts 118°
2026-05-04 17:33 52.48837 3.01918 38921 ft 464 kts 123°
2026-05-04 17:34 52.42521 3.20356 38935 ft 464 kts 122°
2026-05-04 17:35 52.34672 3.43479 38931 ft 464 kts 122°
2026-05-04 17:36 52.31524 3.52692 38925 ft 464 kts 123°
2026-05-04 17:36 52.28373 3.61877 38920 ft 463 kts 123°
2026-05-04 17:37 52.25234 3.70993 38933 ft 463 kts 123°
2026-05-04 17:37 52.22073 3.80140 38917 ft 462 kts 123°
2026-05-04 17:38 52.18914 3.89247 38925 ft 462 kts 123°
2026-05-04 17:38 52.15750 3.98334 38907 ft 461 kts 123°
2026-05-04 17:39 52.10997 4.11928 38914 ft 460 kts 123°
2026-05-04 17:39 52.07821 4.20968 38917 ft 460 kts 123°
2026-05-04 17:40 52.04640 4.29990 38917 ft 460 kts 123°
2026-05-04 17:40 52.01470 4.38950 38885 ft 460 kts 123°
2026-05-04 17:41 51.98274 4.47950 38884 ft 461 kts 123°
2026-05-04 17:41 51.95060 4.56968 38879 ft 461 kts 124°
2026-05-04 17:42 51.91855 4.65931 38889 ft 461 kts 124°
2026-05-04 17:42 51.88627 4.74924 38915 ft 462 kts 124°
2026-05-04 17:43 51.85389 4.83914 38915 ft 462 kts 124°
2026-05-04 17:43 51.82150 4.92875 38905 ft 462 kts 124°
2026-05-04 17:44 51.78918 5.01788 38911 ft 462 kts 124°
2026-05-04 17:44 51.75654 5.10754 38911 ft 463 kts 124°
2026-05-04 17:45 51.72382 5.19710 38919 ft 463 kts 124°
2026-05-04 17:45 51.69098 5.28669 38914 ft 464 kts 124°
2026-05-04 17:46 51.65806 5.37617 38909 ft 464 kts 125°
2026-05-04 17:46 51.62527 5.46500 38904 ft 463 kts 125°
2026-05-04 17:47 51.59237 5.55382 38920 ft 463 kts 125°
2026-05-04 17:47 51.55925 5.64289 38917 ft 463 kts 125°
2026-05-04 17:48 51.52608 5.73180 38907 ft 463 kts 125°
2026-05-04 17:48 51.49288 5.82049 38919 ft 462 kts 125°
2026-05-04 17:49 51.45990 5.90829 38918 ft 462 kts 126°
2026-05-04 17:49 51.42669 5.99641 38930 ft 461 kts 126°
2026-05-04 17:50 51.39347 6.08423 38931 ft 460 kts 126°
2026-05-04 17:50 51.36027 6.17170 38932 ft 459 kts 126°
2026-05-04 17:51 51.32709 6.25884 38919 ft 458 kts 126°
2026-05-04 17:51 51.29413 6.34507 38936 ft 457 kts 126°
2026-05-04 17:52 51.26092 6.43169 38943 ft 457 kts 126°
2026-05-04 17:52 51.22764 6.51820 38944 ft 457 kts 126°
2026-05-04 17:53 51.19428 6.60462 38946 ft 458 kts 126°
2026-05-04 17:53 51.16085 6.69092 38924 ft 458 kts 126°
2026-05-04 17:54 51.12728 6.77731 38924 ft 459 kts 126°
2026-05-04 17:54 51.09361 6.86367 38949 ft 459 kts 126°
2026-05-04 17:55 51.06005 6.94944 38963 ft 460 kts 126°
2026-05-04 17:55 51.02614 7.03585 38965 ft 461 kts 126°
2026-05-04 17:56 50.99203 7.12247 38956 ft 462 kts 126°
2026-05-04 17:56 50.95790 7.20885 38965 ft 462 kts 126°
2026-05-04 17:57 50.92360 7.29537 38966 ft 462 kts 126°
2026-05-04 17:57 50.88930 7.38161 38967 ft 462 kts 126°
2026-05-04 17:58 50.85516 7.46714 38757 ft 465 kts 127°
2026-05-04 17:58 50.83767 7.51085 38502 ft 463 kts 127°
2026-05-04 17:58 50.82048 7.55378 38184 ft 459 kts 127°
2026-05-04 17:59 50.80364 7.59577 37919 ft 458 kts 127°
2026-05-04 17:59 50.78653 7.63831 37661 ft 457 kts 127°
2026-05-04 17:59 50.75245 7.72291 37113 ft 455 kts 127°
2026-05-04 18:00 50.73545 7.76502 36847 ft 454 kts 127°
2026-05-04 18:00 50.71846 7.80699 36585 ft 454 kts 127°
2026-05-04 18:00 50.70162 7.84851 36336 ft 454 kts 127°
2026-05-04 18:00 50.68435 7.89102 36094 ft 454 kts 127°
2026-05-04 18:01 50.66752 7.93241 35837 ft 454 kts 127°
2026-05-04 18:01 50.65046 7.97435 35559 ft 454 kts 127°
2026-05-04 18:01 50.63333 8.01634 35317 ft 455 kts 127°
2026-05-04 18:02 50.59516 8.09438 34997 ft 447 kts 141°
2026-05-04 18:02 50.57142 8.12564 34964 ft 442 kts 150°
2026-05-04 18:02 50.51961 8.17728 34968 ft 442 kts 152°
2026-05-04 18:03 50.46745 8.22863 34963 ft 442 kts 152°
2026-05-04 18:03 50.41553 8.28047 34887 ft 444 kts 152°
2026-05-04 18:04 50.38936 8.30668 34237 ft 447 kts 152°
2026-05-04 18:04 50.36331 8.33280 33475 ft 441 kts 152°
2026-05-04 18:04 50.31138 8.38466 31981 ft 448 kts 152°
2026-05-04 18:05 50.28497 8.41095 31217 ft 449 kts 152°
2026-05-04 18:05 50.25848 8.43710 30484 ft 452 kts 152°
2026-05-04 18:05 50.23175 8.46331 29715 ft 454 kts 152°
2026-05-04 18:05 50.20500 8.48948 28882 ft 455 kts 152°
2026-05-04 18:06 50.15138 8.54197 27633 ft 448 kts 152°
2026-05-04 18:06 50.12533 8.56746 27273 ft 449 kts 152°
2026-05-04 18:06 50.09894 8.59322 26150 ft 444 kts 152°
2026-05-04 18:07 50.07256 8.61691 25489 ft 432 kts 159°
2026-05-04 18:07 50.04449 8.63365 25316 ft 431 kts 166°
2026-05-04 18:07 50.01539 8.64455 25200 ft 430 kts 175°
2026-05-04 18:07 49.98619 8.64969 25069 ft 414 kts 177°
2026-05-04 18:08 49.95798 8.65400 24978 ft 398 kts 178°
2026-05-04 18:08 49.93102 8.65813 24958 ft 381 kts 178°
2026-05-04 18:08 49.90527 8.66221 24960 ft 365 kts 177°
2026-05-04 18:08 49.88076 8.66619 24958 ft 350 kts 177°
2026-05-04 18:09 49.83424 8.67388 24961 ft 323 kts 177°
2026-05-04 18:09 49.79121 8.68104 24960 ft 298 kts 178°
2026-05-04 18:10 49.77096 8.68442 24965 ft 288 kts 178°
2026-05-04 18:10 49.75098 8.68772 24988 ft 294 kts 178°
2026-05-04 18:10 49.73000 8.68974 24996 ft 310 kts 185°
2026-05-04 18:10 49.70793 8.68742 25010 ft 324 kts 188°
2026-05-04 18:11 49.68546 8.68418 24998 ft 324 kts 188°
2026-05-04 18:11 49.66295 8.68084 24997 ft 325 kts 188°
2026-05-04 18:11 49.64070 8.67760 24987 ft 326 kts 188°
2026-05-04 18:11 49.61804 8.67440 24986 ft 326 kts 188°
2026-05-04 18:12 49.59542 8.67129 24991 ft 327 kts 188°
2026-05-04 18:12 49.57276 8.66822 24977 ft 324 kts 187°
2026-05-04 18:12 49.55022 8.66520 24522 ft 330 kts 187°
2026-05-04 18:12 49.52709 8.66210 23982 ft 336 kts 187°
2026-05-04 18:13 49.50358 8.65898 23400 ft 341 kts 187°
2026-05-04 18:13 49.47984 8.65584 22765 ft 344 kts 187°
2026-05-04 18:13 49.43160 8.64948 21503 ft 350 kts 187°
2026-05-04 18:14 49.40729 8.64629 20897 ft 352 kts 187°
2026-05-04 18:14 49.38278 8.64306 20322 ft 354 kts 187°
2026-05-04 18:14 49.35853 8.63989 20116 ft 344 kts 187°
2026-05-04 18:15 49.31249 8.63367 19986 ft 319 kts 188°
2026-05-04 18:15 49.27032 8.62701 19976 ft 297 kts 189°
2026-05-04 18:15 49.24975 8.62370 19992 ft 298 kts 189°
2026-05-04 18:16 49.22894 8.62036 19989 ft 306 kts 188°
2026-05-04 18:16 49.20774 8.61699 20005 ft 307 kts 188°
2026-05-04 18:16 49.18650 8.61369 19982 ft 305 kts 189°
2026-05-04 18:17 49.14462 8.60719 19984 ft 301 kts 189°
2026-05-04 18:17 49.12378 8.60398 19988 ft 300 kts 188°
2026-05-04 18:17 49.08225 8.59763 19994 ft 300 kts 188°
2026-05-04 18:18 49.06840 8.59552 19996 ft 301 kts 188°
2026-05-04 18:18 49.04755 8.59233 19994 ft 302 kts 188°
2026-05-04 18:18 49.02664 8.58913 20008 ft 303 kts 188°
2026-05-04 18:18 49.00555 8.58591 19999 ft 304 kts 188°
2026-05-04 18:19 48.96295 8.58651 20004 ft 309 kts 178°
2026-05-04 18:19 48.94155 8.58961 20003 ft 309 kts 178°
2026-05-04 18:19 48.92011 8.59255 19998 ft 310 kts 179°
2026-05-04 18:20 48.89859 8.59527 20003 ft 310 kts 179°
2026-05-04 18:20 48.87707 8.59790 20005 ft 310 kts 179°
2026-05-04 18:20 48.85559 8.60048 20002 ft 309 kts 179°
2026-05-04 18:20 48.83379 8.60309 19193 ft 323 kts 178°
2026-05-04 18:21 48.81130 8.60919 18320 ft 334 kts 167°
2026-05-04 18:21 48.78919 8.62137 17343 ft 341 kts 163°
2026-05-04 18:21 48.76705 8.63389 16378 ft 345 kts 164°
2026-05-04 18:21 48.74471 8.64624 15951 ft 333 kts 164°
2026-05-04 18:22 48.72334 8.65807 15817 ft 313 kts 163°
2026-05-04 18:22 48.70506 8.67444 15518 ft 311 kts 143°
2026-05-04 18:22 48.69163 8.70100 14617 ft 332 kts 120°
2026-05-04 18:22 48.68573 8.73558 13855 ft 345 kts 96°
2026-05-04 18:23 48.68850 8.77156 13276 ft 345 kts 78°
2026-05-04 18:23 48.69495 8.80621 12632 ft 341 kts 76°
2026-05-04 18:23 48.70185 8.84057 11851 ft 343 kts 76°
2026-05-04 18:23 48.70887 8.87518 11092 ft 343 kts 76°
2026-05-04 18:24 48.71570 8.90926 10443 ft 339 kts 77°
2026-05-04 18:24 48.72244 8.94339 9848 ft 333 kts 77°
2026-05-04 18:24 48.72886 8.97629 9199 ft 329 kts 77°
2026-05-04 18:24 48.73525 9.00945 8488 ft 327 kts 76°
2026-05-04 18:25 48.74156 9.04238 7790 ft 324 kts 76°
2026-05-04 18:25 48.74780 9.07507 7277 ft 320 kts 76°
2026-05-04 18:25 48.75379 9.10644 7094 ft 302 kts 76°
2026-05-04 18:25 48.75944 9.13606 7003 ft 283 kts 76°
2026-05-04 18:26 48.76476 9.16404 6988 ft 273 kts 76°
2026-05-04 18:26 48.76998 9.19166 6994 ft 274 kts 76°
2026-05-04 18:26 48.77537 9.22029 6306 ft 291 kts 75°
2026-05-04 18:26 48.78092 9.24974 5577 ft 296 kts 74°
2026-05-04 18:27 48.78664 9.28008 4851 ft 301 kts 73°
2026-05-04 18:27 48.79239 9.31054 4333 ft 296 kts 73°
2026-05-04 18:27 48.79788 9.33974 4161 ft 280 kts 73°
2026-05-04 18:27 48.80310 9.36753 4036 ft 269 kts 73°
2026-05-04 18:28 48.80815 9.39450 4009 ft 265 kts 72°
2026-05-04 18:28 48.81318 9.42135 3997 ft 266 kts 72°
2026-05-04 18:28 48.81821 9.44829 3995 ft 266 kts 72°
2026-05-04 18:28 48.82324 9.47531 3994 ft 266 kts 72°
2026-05-04 18:29 48.82824 9.50224 4017 ft 266 kts 72°
2026-05-04 18:29 48.83327 9.52936 4035 ft 265 kts 73°
2026-05-04 18:29 48.83814 9.55610 4017 ft 261 kts 76°
2026-05-04 18:29 48.83844 9.58371 4019 ft 266 kts 101°
2026-05-04 18:30 48.81578 9.62544 4009 ft 264 kts 160°
2026-05-04 18:30 48.79802 9.62913 3999 ft 253 kts 190°
2026-05-04 18:30 48.78250 9.61979 3992 ft 234 kts 219°
2026-05-04 18:31 48.76990 9.60466 3997 ft 232 kts 223°
2026-05-04 18:31 48.75872 9.58749 3992 ft 227 kts 242°
2026-05-04 18:31 48.75429 9.56503 4022 ft 223 kts 260°
2026-05-04 18:31 48.75042 9.54215 4018 ft 226 kts 256°
2026-05-04 18:32 48.74609 9.51920 4012 ft 226 kts 256°
2026-05-04 18:32 48.74175 9.49631 4011 ft 226 kts 256°
2026-05-04 18:32 48.73742 9.47340 4014 ft 226 kts 256°
2026-05-04 18:32 48.73327 9.45048 3882 ft 223 kts 256°
2026-05-04 18:33 48.72916 9.42845 3613 ft 212 kts 256°
2026-05-04 18:33 48.72519 9.40762 3366 ft 201 kts 256°
2026-05-04 18:33 48.72138 9.38772 3110 ft 191 kts 257°
2026-05-04 18:33 48.71782 9.36912 2863 ft 175 kts 256°
2026-05-04 18:34 48.71467 9.35257 2637 ft 155 kts 254°
2026-05-04 18:34 48.71187 9.33793 2430 ft 140 kts 258°
2026-05-04 18:34 48.70927 9.32420 2247 ft 135 kts 259°
2026-05-04 18:34 48.70667 9.31045 2089 ft 139 kts 257°
2026-05-04 18:35 48.70399 9.29632 1883 ft 141 kts 257°
2026-05-04 18:35 48.70128 9.28212 1723 ft 140 kts 257°
2026-05-04 18:35 48.69861 9.26798 1532 ft 140 kts 258°
2026-05-04 18:35 48.69587 9.25385 1357 ft 140 kts 259°
2026-05-04 18:36 48.69322 9.23968 1232 ft 141 kts 258°
2026-05-04 18:36 48.69088 9.22702 1222 ft 99 kts 254°
2026-05-04 18:36 48.68959 9.22045 1235 ft 28 kts 255°
2026-05-04 18:36 48.68947 9.21762 1245 ft 26 kts 275°
2026-05-04 18:37 48.68974 9.21560 1255 ft 6 kts 283°
2026-05-04 18:37 48.68978 9.21514 1257 ft 2 kts 273°
2026-05-04 18:37 48.68982 9.21492 1254 ft 2 kts 287°
2026-05-04 18:37 48.68986 9.21471 1255 ft 2 kts 287°
2026-05-04 18:38 48.68993 9.21437 1261 ft 6 kts 285°
2026-05-04 18:38 48.69000 9.21354 1259 ft 9 kts 266°
2026-05-04 18:38 48.68986 9.21256 1266 ft 10 kts 256°
2026-05-04 18:38 48.68967 9.21158 1265 ft 10 kts 253°
2026-05-04 18:39 48.68949 9.21063 1266 ft 9 kts 255°
2026-05-04 18:39 48.68931 9.20968 1274 ft 9 kts 254°
2026-05-04 18:39 48.68913 9.20874 1271 ft 9 kts 253°
2026-05-04 18:39 48.68896 9.20782 1272 ft 9 kts 260°
2026-05-04 18:40 48.68918 9.20697 1276 ft 9 kts 310°
2026-05-04 18:40 48.68960 9.20630 1279 ft 9 kts 314°
2026-05-04 18:40 48.69000 9.20566 1282 ft 8 kts 314°
2026-05-04 18:40 48.69040 9.20504 1286 ft 7 kts 314°
2026-05-04 18:41 48.69062 9.20444 1288 ft 6 kts 270°
2026-05-04 18:41 48.69054 9.20389 1290 ft 5 kts 255°
2026-05-04 18:41 48.69045 9.20340 1292 ft 3 kts 247°
2026-05-04 18:41 48.69027 9.20330 1292 ft 4 kts 181°
2026-05-04 18:42 48.68999 9.20340 1290 ft 3 kts 161°
2026-05-04 18:42 48.68981 9.20349 1289 ft 3 kts 163°
2026-05-04 18:42 48.68972 9.20353 1289 ft 1 kts 163°